Torna al catalogo

METEOR 2-5 DEB

AttivoPO
NORAD 28594·DEBRIS·🇷🇺 Russia

Lanciato Oct 31, 1979 da Plesetsk Cosmodrome

Loading…

Prossimi Passaggi (prossime 24 ore)

TLE

AggiornatoSource: Space-Track

Epoca: Sep 14, 2026, 08:39 UTC

1 28594U 79095E   26257.36082597  .00008171  00000-0  12359-2 0  9999
2 28594  81.1420 280.6744 0013261 267.3645  92.6043 14.74103284146765

Traccia METEOR 2-5 DEB in tempo reale con AllMySat

Download on the App Store